This demonstration page uses our WeatherBlox Daily Observations layout. Learn more.

Left ArrowRight Arrow

Hourly Observations for August 20, 2020

Temp ( °F °C ) Dew Point ( °F °C ) Humidity (%) Winds ( mph kmh ) Pressure ( in mb ) Visibility ( mi km ) Precip ( " mm )
12:52 am 00:52 Clear 66 18.9 53 11.7 63 63 ESE 7 11 30.00 1016 10 16 0.00 0.00
1:52 am 01:52 Clear 63 17.2 53 11.7 70 70 ESE 6 9 29.99 1016 10 16 0.00 0.00
2:52 am 02:52 Clear 62 16.7 53 11.7 73 73 Calm 29.99 1016 10 16 0.00 0.00
3:52 am 03:52 Clear 62 16.7 54 12.2 75 75 ESE 5 7 29.99 1016 10 16 0.00 0.00
4:52 am 04:52 Clear 60 15.6 54 12.2 80 80 SE 3 6 29.99 1016 10 16 0.00 0.00
5:52 am 05:52 Clear 59 15 54 12.2 83 83 Calm 29.99 1016 10 16 0.00 0.00
6:52 am 06:52 Sunny 58 14.4 54 12.2 87 87 SSE 5 7 30.00 1016 10 16 0.00 0.00
7:52 am 07:52 Sunny 63 17.2 57 13.9 81 81 SE 5 7 30.00 1016 10 16 0.00 0.00
8:52 am 08:52 Sunny 70 21.1 57 13.9 64 64 SSE 10 17 29.99 1016 10 16 0.00 0.00
9:52 am 09:52 Sunny 73 22.8 57 13.9 57 57 S 8 13 29.99 1016 10 16 0.00 0.00
10:52 am 10:52 Sunny 76 24.4 59 15 56 56 VRB 5 7 29.99 1016 10 16 0.00 0.00
11:52 am 11:52 Sunny 81 27.2 55 12.8 41 41 VRB 3 6 29.97 1015 10 16 0.00 0.00
12:52 pm 12:52 Sunny 81 27.2 53 11.7 38 38 ENE 8 13 29.95 1014 10 16 0.00 0.00
1:52 pm 13:52 Sunny 84 28.9 52 11.1 33 33 SE 10 17 29.93 1013 10 16 0.00 0.00
2:52 pm 14:52 Sunny 84 28.9 53 11.7 34 34 ESE 6 9 29.91 1013 10 16 0.00 0.00
3:52 pm 15:52 Sunny 85 29.4 48 8.9 28 28 E 8 13 29.88 1012 10 16 0.00 0.00
4:52 pm 16:52 Sunny 85 29.4 50 10 30 30 E 5 7 29.87 1012 10 16 0.00 0.00
5:52 pm 17:52 Sunny 85 29.4 53 11.7 33 33 SSE 5 7 29.87 1012 10 16 0.00 0.00
6:52 pm 18:52 Sunny 83 28.3 52 11.1 34 34 N 5 7 29.87 1012 10 16 0.00 0.00
7:52 pm 19:52 Sunny 77 25 56 13.3 48 48 NNE 7 11 29.87 1012 10 16 0.00 0.00
8:52 pm 20:52 Clear 76 24.4 55 12.8 48 48 NE 6 9 29.88 1012 10 16 0.00 0.00
9:52 pm 21:52 Clear 73 22.8 54 12.2 51 51 ENE 7 11 29.90 1012 10 16 0.00 0.00
10:52 pm 22:52 Clear 66 18.9 56 13.3 70 70 E 7 11 29.91 1013 10 16 0.00 0.00
11:52 pm 23:52 Clear 69 20.6 57 13.9 66 66 E 6 9 29.90 1013 10 16 0.00 0.00

Powered by AerisWeather